FW1302 Weather Reports


time (UTC)temp
C
wind
direction
speed
KPH
gust
KPH
rain 1hr
cm
rain 24hr
cm
rain mn
cm
humidity
%
barometer
mb
20260902230714 15 180 0.0 0.0 0.00 0.00 0.00 92 1018.0
20260902224713 15 202 0.0 0.0 0.00 0.00 0.00 91 1018.3
20260902223811 15 202 0.0 0.0 0.00 0.00 0.00 90 1018.0
20260902221813 15 202 0.0 0.0 0.00 0.00 0.00 92 1018.2
20260902215914 15 204 0.0 4.8 0.00 0.00 0.00 91 1018.4
20260902213911 15 45 1.6 3.2 0.00 0.00 0.00 90 1018.2
20260902212913 15 45 0.0 0.0 0.00 0.00 0.00 89 1018.0
20260902211011 15 45 0.0 0.0 0.00 0.00 0.00 89 1017.8
20260902210913 15 45 0.0 0.0 0.00 0.00 0.00 89 1017.8
20260902210012 15 45 0.0 0.0 0.00 0.00 0.00 90 1017.8
20260902204013 15 45 4.8 4.8 0.00 0.00 0.00 89 1017.7
20260902203014 15 49 6.4 6.4 0.00 0.00 0.00 89 1017.7
20260902202112 15 135 0.0 0.0 0.00 0.00 0.00 88 1017.9
20260902201112 15 135 0.0 0.0 0.00 0.00 0.00 88 1018.0
20260902200112 15 135 1.6 4.8 0.00 0.00 0.00 87 1018.1
20260902195112 16 184 0.0 6.4 0.00 0.00 0.00 86 1018.4
20260902194113 16 207 3.2 8.0 0.00 0.00 0.00 85 1018.5
20260902193112 16 225 9.7 12.9 0.00 0.00 0.00 83 1018.5
20260902192211 16 220 9.7 14.5 0.00 0.00 0.00 82 1018.4
20260902191213 16 225 11.3 12.9 0.00 0.00 0.00 80 1018.4
20260902190214 17 231 6.4 9.7 0.00 0.00 0.00 78 1018.2
20260902185212 17 225 6.4 9.7 0.00 0.00 0.00 76 1018.2
20260902184214 17 270 9.7 11.3 0.00 0.00 0.00 73 1017.9
20260902183210 17 247 8.0 11.3 0.00 0.00 0.00 71 1018.0
20260902182212 18 270 6.4 8.0 0.00 0.00 0.00 66 1018.0
20260902175311 17 247 1.6 3.2 0.00 0.00 0.00 66 1018.0
20260902175211 17 247 1.6 3.2 0.00 0.00 0.00 66 1018.0
20260902174213 18 292 4.8 4.8 0.00 0.00 0.00 66 1017.9
20260902172213 17 22 3.2 4.8 0.00 0.00 0.00 67 1017.9
20260902171212 17 22 4.8 6.4 0.00 0.00 0.00 68 1017.9
20260902171110 17 22 3.2 4.8 0.00 0.00 0.00 68 1017.9
20260902170112 17 22 6.4 8.0 0.00 0.00 0.00 68 1018.0
20260902164211 17 22 6.4 8.0 0.00 0.00 0.00 70 1018.1
20260902163213 17 45 6.4 8.0 0.00 0.00 0.00 70 1018.2
20260902162213 17 45 8.0 9.7 0.00 0.00 0.00 70 1018.3
20260902160310 17 45 9.7 11.3 0.00 0.00 0.00 68 1018.5
20260902155313 17 45 8.0 9.7 0.00 0.00 0.00 68 1018.7
20260902154311 17 45 4.8 8.0 0.00 0.00 0.00 71 1018.9
20260902152313 16 45 3.2 6.4 0.00 0.00 0.00 74 1019.2
20260902150412 16 112 0.0 0.0 0.00 0.00 0.00 76 1019.3
20260902145415 16 112 0.0 0.0 0.00 0.00 0.00 76 1019.4
20260902144511 16 135 0.0 0.0 0.00 0.00 0.00 77 1019.4
20260902143512 16 135 0.0 0.0 0.00 0.00 0.00 76 1019.6
20260902143413 16 135 0.0 0.0 0.00 0.00 0.00 76 1019.5
20260902142512 16 135 0.0 0.0 0.00 0.00 0.00 74 1019.9
20260902140612 15 135 0.0 0.0 0.00 0.00 0.00 77 1020.1
20260902140514 15 135 0.0 0.0 0.00 0.00 0.00 77 1020.1
20260902135611 15 135 0.0 0.0 0.00 0.00 0.00 76 1020.1
20260902134612 15 135 0.0 1.6 0.00 0.00 0.00 78 1020.3
20260902133611 15 135 3.2 6.4 0.00 0.00 0.00 79 1020.3
20260902132711 15 180 0.0 0.0 0.00 0.00 0.00 79 1020.4
20260902131711 15 247 0.0 0.0 0.00 0.00 0.00 78 1020.3
20260902125712 16 241 12.9 17.7 0.00 0.00 0.00 75 1020.5
20260902124713 16 243 14.5 19.3 0.00 0.00 0.00 71 1020.5
20260902123714 17 265 19.3 29.0 0.00 0.00 0.00 68 1020.4
20260902122712 17 257 9.7 12.9 0.00 0.00 0.00 68 1020.5
20260902121712 17 232 6.4 9.7 0.00 0.00 0.00 68 1020.3
20260902115713 17 253 6.4 11.3 0.00 0.00 0.00 71 1020.5
20260902114715 16 262 3.2 4.8 0.00 0.00 0.00 70 1020.6
20260902113711 17 210 1.6 4.8 0.00 0.00 0.00 70 1020.8
20260902112712 17 247 6.4 8.0 0.00 0.00 0.00 70 1020.6
20260902110711 17 260 8.0 9.7 0.00 0.00 0.00 69 1020.6
20260902105712 17 225 6.4 9.7 0.00 0.00 0.00 68 1020.8
20260902104712 17 248 9.7 11.3 0.00 0.00 0.00 68 1020.8
20260902103715 17 227 8.0 11.3 0.00 0.00 0.00 69 1020.9
20260902101713 17 255 9.7 14.5 0.00 0.00 0.00 68 1021.2
20260902100810 17 225 8.0 9.7 0.00 0.00 0.00 67 1021.3
20260902095813 17 242 14.5 19.3 0.00 0.00 0.00 67 1021.4
20260902094814 17 223 6.4 11.3 0.00 0.00 0.00 68 1021.4
20260902092910 17 229 8.0 12.9 0.00 0.00 0.00 70 1021.4
20260902091913 17 238 19.3 25.7 0.00 0.00 0.00 70 1021.2
20260902090813 17 226 9.7 14.5 0.00 0.00 0.00 69 1021.4
20260902085814 17 225 8.0 11.3 0.00 0.00 0.00 70 1021.5
20260902084811 17 240 14.5 20.9 0.00 0.00 0.00 71 1021.3
20260902083813 17 234 6.4 8.0 0.00 0.00 0.00 70 1021.6
20260902082811 17 229 9.7 14.5 0.00 0.00 0.00 70 1021.3
20260902081813 17 227 8.0 11.3 0.00 0.00 0.00 71 1021.5
20260902080911 17 225 9.7 12.9 0.00 0.00 0.00 71 1021.5
20260902075912 17 230 9.7 12.9 0.00 0.00 0.00 71 1021.5
20260902075010 17 248 12.9 14.5 0.00 0.00 0.00 70 1021.5
20260902074013 17 225 14.5 19.3 0.00 0.00 0.00 70 1021.7
20260902073110 17 229 12.9 17.7 0.00 0.00 0.00 71 1021.7
20260902072112 17 225 9.7 12.9 0.00 0.00 0.00 72 1021.7
20260902071112 17 240 14.5 19.3 0.00 0.00 0.00 72 1021.9
20260902070112 17 239 9.7 14.5 0.00 0.00 0.00 73 1022.1
20260902065124 17 229 9.7 14.5 0.00 0.00 0.00 74 1022.2
20260902064223 17 245 14.5 17.7 0.00 0.00 0.00 74 1022.4
20260902063224 17 247 16.1 20.9 0.00 0.00 0.00 74 1022.4
20260902062228 17 243 17.7 24.1 0.00 0.00 0.00 71 1022.4
20260902060327 18 255 22.5 35.4 0.00 0.00 0.00 67 1022.2
20260902055325 18 252 17.7 22.5 0.00 0.00 0.00 67 1022.2
20260902054326 18 233 14.5 20.9 0.00 0.00 0.00 68 1022.4
20260902053424 18 238 16.1 20.9 0.00 0.00 0.00 68 1022.2
20260902051524 18 244 14.5 17.7 0.00 0.00 0.00 67 1022.2
20260902051426 18 245 16.1 24.1 0.00 0.00 0.00 67 1022.1
20260902050525 18 227 17.7 24.1 0.00 0.00 0.00 66 1021.9
20260902045526 18 228 14.5 27.4 0.00 0.00 0.00 66 1022.0
20260902044527 18 229 19.3 25.7 0.00 0.00 0.00 65 1021.8
20260902043624 18 226 14.5 19.3 0.00 0.00 0.00 65 1021.8
20260902042723 18 237 12.9 17.7 0.00 0.00 0.00 65 1021.9
20260902035725 19 226 11.3 17.7 0.00 0.00 0.00 62 1021.7
20260902033725 19 238 14.5 20.9 0.00 0.00 0.00 62 1021.2
20260902032726 19 238 14.5 17.7 0.00 0.00 0.00 62 1021.4
20260902032624 19 241 17.7 19.3 0.00 0.00 0.00 62 1021.4
20260902031625 19 241 20.9 27.4 0.00 0.00 0.00 62 1021.3
20260902030626 19 240 14.5 20.9 0.00 0.00 0.00 61 1021.5
20260902025626 19 242 20.9 27.4 0.00 0.00 0.00 61 1021.3
20260902024625 19 238 14.5 20.9 0.00 0.00 0.00 62 1021.2
20260902023724 19 232 14.5 22.5 0.00 0.00 0.00 63 1021.2
20260902022725 19 225 14.5 19.3 0.00 0.00 0.00 64 1021.2
20260902021727 20 225 11.3 16.1 0.00 0.00 0.00 65 1021.0
20260902020824 20 230 14.5 20.9 0.00 0.00 0.00 63 1021.1
20260902015826 20 228 16.1 20.9 0.00 0.00 0.00 64 1021.0
20260902014827 20 229 12.9 14.5 0.00 0.00 0.00 63 1021.0
20260902013925 20 229 17.7 24.1 0.00 0.00 0.00 63 1021.2
20260902012926 20 225 17.7 22.5 0.00 0.00 0.00 64 1021.3
20260902012023 20 225 16.1 22.5 0.00 0.00 0.00 62 1021.1
20260902011123 20 216 11.3 17.7 0.00 0.00 0.00 62 1020.9
20260902010125 20 232 17.7 22.5 0.00 0.00 0.00 63 1020.7
20260902004225 20 220 17.7 22.5 0.00 0.00 0.00 62 1020.9
20260902003225 20 225 17.7 22.5 0.00 0.00 0.00 62 1020.7
20260902002225 20 230 16.1 20.9 0.00 0.00 0.00 62 1020.8
20260902002127 20 226 14.5 22.5 0.00 0.00 0.00 63 1020.8
20260902000226 20 220 19.3 27.4 0.00 0.00 0.00 61 1020.8
20260901235323 20 235 14.5 17.7 0.00 0.00 0.00 60 1020.8
20260901234324 20 224 19.3 24.1 0.00 0.00 0.00 60 1020.8
20260901233424 20 228 16.1 22.5 0.00 0.00 0.00 61 1020.9